Stations météo

réclame
Mon MeteoGroup
Schleswig-Jagel, Allemagne (10037): Température de l'air & dewpoint: 19.03.2019 11:00:00 - 25.03.2019 11:00:00 (CET)Schleswig-Jagel, Allemagne (10037): Vitesse du vent & gusts: 19.03.2019 11:00:00 - 25.03.2019 11:00:00 (CET)Schleswig-Jagel, Allemagne (10037): Direction du vent: 19.03.2019 11:00:00 - 25.03.2019 11:00:00 (CET)Schleswig-Jagel, Allemagne (10037): reduced air pressure: 19.03.2019 11:00:00 - 25.03.2019 11:00:00 (CET)Schleswig-Jagel, Allemagne (10037): visibility: 19.03.2019 11:00:00 - 25.03.2019 11:00:00 (CET)
Date & Time tt [°C] td [°C] ff [km/h] ff [knt] fx [km/h] fx [knt] dd ppp [hPa] vv [km]
25.03.2019 11:00:00 7,0 1,8 29 16 - - NNW 1013,2 20
25.03.2019 10:00:00 5,6 2,9 22 12 - - NW 1012,9 20
25.03.2019 09:00:00 4,0 2,5 14 8 - - NW 1012,2 20
25.03.2019 08:00:00 4,2 2,2 11 6 - - WSW 1011,3 10
25.03.2019 07:00:00 2,7 1,4 11 6 - - W 1010,8 14
25.03.2019 06:00:00 2,1 0,9 14 8 - - W 1010,8 14
25.03.2019 05:00:00 1,6 0,5 14 8 - - W 1011,1 -
25.03.2019 04:00:00 2,2 0,6 18 10 - - W 1011,5 -
25.03.2019 03:00:00 4,0 2,2 22 12 - - WNW 1011,7 -
25.03.2019 02:00:00 4,2 2,2 29 16 50 27 WNW 1011,8 -
25.03.2019 01:00:00 5,3 3,6 29 16 - - WSW 1012,8 -
25.03.2019 00:00:00 5,3 2,7 25 14 - - SW 1014,9 -
24.03.2019 23:00:00 4,2 2,4 22 12 - - SW 1016,5 -
24.03.2019 22:00:00 4,4 2,6 22 12 - - WSW 1017,9 -
24.03.2019 21:00:00 4,9 2,6 25 14 - - WSW 1019,2 -
24.03.2019 20:00:00 5,3 2,3 18 10 - - WSW 1020,3 -
24.03.2019 19:00:00 5,6 2,1 22 12 - - WSW 1020,9 -
24.03.2019 18:00:00 6,4 1,3 22 12 - - W 1021,6 -
24.03.2019 17:00:00 7,1 1,5 25 14 - - W 1022,3 -
24.03.2019 16:00:00 8,1 -0,5 29 16 - - W 1023,0 -
24.03.2019 15:00:00 8,2 0,3 29 16 - - WNW 1023,8 -
24.03.2019 14:00:00 8,6 0,5 29 16 - - W 1024,8 -
24.03.2019 13:00:00 7,9 0,2 25 14 - - W 1025,6 -
24.03.2019 12:00:00 8,2 1,5 22 12 - - W 1026,3 -
24.03.2019 11:00:00 6,7 3,6 18 10 - - W 1026,8 -
24.03.2019 10:00:00 5,0 3,7 11 6 - - SW 1027,7 -
24.03.2019 09:00:00 3,7 3,4 7 4 - - SW 1028,2 -
24.03.2019 08:00:00 2,8 2,7 4 2 - - SW 1028,6 -
24.03.2019 07:00:00 2,0 1,8 7 4 - - WSW 1028,9 -
24.03.2019 06:00:00 1,6 1,3 4 2 - - W 1029,4 -
24.03.2019 05:00:00 1,0 0,6 11 6 - - SW 1029,6 -
24.03.2019 04:00:00 1,7 1,3 7 4 - - WSW 1030,0 -
24.03.2019 03:00:00 2,3 1,7 7 4 - - WSW 1030,3 -
24.03.2019 02:00:00 1,8 1,2 7 4 - - W 1030,4 -
24.03.2019 01:00:00 2,2 1,6 7 4 - - W 1030,6 -
24.03.2019 00:00:00 2,4 1,6 7 4 - - W 1031,0 -
23.03.2019 23:00:00 1,9 1,2 7 4 - - SW 1031,3 -
23.03.2019 22:00:00 2,1 1,1 11 6 - - WNW 1031,1 -
23.03.2019 21:00:00 3,1 1,5 11 6 - - W 1031,0 -
23.03.2019 20:00:00 4,5 2,0 11 6 - - WNW 1030,6 -
23.03.2019 19:00:00 6,3 1,8 11 6 - - WNW 1030,2 -
23.03.2019 18:00:00 7,5 1,6 22 12 - - NW 1029,7 -
23.03.2019 17:00:00 8,8 1,9 25 14 - - WNW 1029,2 -
23.03.2019 16:00:00 9,7 1,4 29 16 - - NW 1028,6 -
23.03.2019 15:00:00 10,5 3,2 29 16 - - WNW 1028,5 -
23.03.2019 14:00:00 11,3 3,5 25 14 - - WNW 1028,1 -
23.03.2019 13:00:00 10,8 4,1 25 14 - - WNW 1027,8 -
23.03.2019 12:00:00 10,0 4,3 29 16 - - WNW 1027,3 -
23.03.2019 11:00:00 9,3 6,9 22 12 - - W 1026,9 -
23.03.2019 10:00:00 8,1 7,0 18 10 - - W 1026,7 -
23.03.2019 09:00:00 6,5 6,0 11 6 - - WSW 1026,1 -
23.03.2019 08:00:00 5,3 4,9 11 6 - - SW 1026,0 -
23.03.2019 07:00:00 4,9 4,5 14 8 - - WSW 1026,0 -
23.03.2019 06:00:00 5,1 4,5 14 8 - - SW 1025,3 -
23.03.2019 05:00:00 5,0 4,4 14 8 - - WSW 1025,4 -
23.03.2019 04:00:00 5,6 5,0 14 8 - - W 1025,1 -
23.03.2019 03:00:00 5,6 5,3 14 8 - - W 1025,2 -
23.03.2019 02:00:00 6,8 6,7 14 8 - - WNW 1025,1 -
23.03.2019 01:00:00 6,9 6,5 22 12 - - WNW 1025,3 -
23.03.2019 00:00:00 9,1 8,0 14 8 - - S 1024,7 -
22.03.2019 23:00:00 9,3 8,1 14 8 - - SSE 1025,2 -
22.03.2019 22:00:00 9,3 7,8 11 6 - - SSE 1025,7 -
22.03.2019 21:00:00 9,8 8,2 11 6 - - SE 1026,3 -
22.03.2019 20:00:00 9,5 8,1 11 6 - - ESE 1026,8 -
22.03.2019 19:00:00 10,0 8,2 11 6 - - ESE 1026,9 -
22.03.2019 18:00:00 11,5 8,8 11 6 - - ESE 1027,4 -
22.03.2019 17:00:00 12,4 8,9 14 8 - - SSE 1027,7 -
22.03.2019 16:00:00 11,2 8,4 11 6 - - S 1028,7 -
22.03.2019 15:00:00 10,4 8,3 14 8 - - S 1029,8 -
22.03.2019 14:00:00 9,5 8,1 14 8 - - SSW 1030,5 -
22.03.2019 13:00:00 8,9 7,7 14 8 - - SSW 1031,0 -
22.03.2019 12:00:00 7,8 7,1 15 8 - - S 1031,8 7
22.03.2019 11:00:00 7,4 6,9 18 10 - - S 1032,1 6
22.03.2019 10:00:00 7,3 7,1 14 8 - - SSW 1032,6 3,6
22.03.2019 09:00:00 7,0 6,8 9 5 - - S 1033,1 3,5
22.03.2019 08:00:00 6,3 6,2 4 2 - - SE 1033,3 1,5
22.03.2019 07:00:00 6,1 5,9 4 2 - - ESE 1033,3 0,5
22.03.2019 06:00:00 6,0 5,8 7 4 - - NNE 1033,2 1,1
22.03.2019 05:00:00 6,1 6,0 7 4 - - NNW 1032,7 -
22.03.2019 04:00:00 6,1 6,0 14 8 - - W 1032,3 -
22.03.2019 03:00:00 6,2 6,1 18 10 - - W 1032,8 -
22.03.2019 02:00:00 6,6 6,5 18 10 - - W 1032,8 -
22.03.2019 01:00:00 6,8 6,6 22 12 - - W 1032,7 -
22.03.2019 00:00:00 7,1 7,0 22 12 - - WSW 1032,8 -
21.03.2019 23:00:00 7,2 7,0 18 10 - - WSW 1032,7 -
21.03.2019 22:00:00 7,2 7,0 14 8 - - WSW 1032,8 -
21.03.2019 21:00:00 7,5 7,2 18 10 - - W 1032,8 -
21.03.2019 20:00:00 7,7 7,2 29 16 - - W 1032,2 -
21.03.2019 19:00:00 8,3 7,5 29 16 - - W 1031,8 -
21.03.2019 18:00:00 8,9 7,8 25 14 - - W 1031,7 -
21.03.2019 17:00:00 9,2 7,8 29 16 - - WSW 1031,5 5
21.03.2019 16:00:00 9,6 7,7 29 16 - - WSW 1031,5 7
21.03.2019 15:00:00 9,9 7,9 32 18 47 25 WSW 1031,4 7
21.03.2019 14:00:00 10,6 8,2 32 18 50 27 WSW 1031,5 7
21.03.2019 13:00:00 10,4 8,0 36 19 - - W 1031,7 7
21.03.2019 12:00:00 9,8 7,8 32 18 47 25 WSW 1031,8 6
21.03.2019 11:00:00 9,4 7,8 32 18 - - WSW 1032,0 6
21.03.2019 10:00:00 8,6 8,1 21 11 - - SW 1032,0 4,5
21.03.2019 09:00:00 7,6 7,5 22 12 - - SW 1031,7 3,5
21.03.2019 08:00:00 7,2 7,1 28 15 - - WSW 1031,4 1,2
21.03.2019 07:00:00 7,1 7,0 25 14 - - WSW 1030,9 0,4
21.03.2019 06:00:00 6,8 6,7 25 14 - - WSW 1030,8 0,5
21.03.2019 05:00:00 6,8 6,5 29 16 - - WSW 1030,8 -
21.03.2019 04:00:00 7,0 6,7 25 14 - - WSW 1031,0 -
21.03.2019 03:00:00 8,0 7,1 25 14 - - WSW 1031,3 -
21.03.2019 02:00:00 8,2 7,3 22 12 - - WSW 1031,6 -
21.03.2019 01:00:00 7,9 7,3 22 12 - - WSW 1031,6 -
21.03.2019 00:00:00 7,2 6,8 14 8 - - WSW 1032,0 -
20.03.2019 23:00:00 7,1 6,6 14 8 - - WSW 1031,9 -
20.03.2019 22:00:00 7,2 6,7 14 8 - - WSW 1031,8 -
20.03.2019 21:00:00 7,4 6,8 14 8 - - WSW 1031,9 3,7
20.03.2019 20:00:00 7,6 6,7 18 10 - - WSW 1031,6 6
20.03.2019 19:00:00 8,2 7,0 18 10 - - W 1030,7 6
20.03.2019 18:00:00 8,7 7,3 22 12 - - W 1030,3 8
20.03.2019 17:00:00 8,9 7,3 25 14 - - W 1029,9 9
20.03.2019 16:00:00 9,5 7,8 28 15 - - W 1029,7 8
20.03.2019 15:00:00 8,8 7,8 29 16 - - WSW 1029,4 4,2
20.03.2019 14:00:00 8,5 7,8 29 16 - - WSW 1029,0 3,1
20.03.2019 13:00:00 7,9 7,3 25 14 - - WSW 1029,6 2,0
20.03.2019 12:00:00 7,9 7,3 29 16 - - WSW 1029,6 1,8
20.03.2019 11:00:00 7,3 6,6 22 12 - - SW 1028,5 1,3
20.03.2019 10:00:00 7,1 5,4 0 0 - - N 1028,3 4,0
20.03.2019 09:00:00 6,5 4,5 29 16 - - SW 1028,1 6
20.03.2019 08:00:00 6,0 3,5 22 12 - - SW 1028,0 10
20.03.2019 07:00:00 5,2 2,7 18 10 - - SW 1027,7 12
20.03.2019 06:00:00 4,3 1,7 18 10 - - SSW 1027,8 12
20.03.2019 05:00:00 3,2 0,7 14 8 - - SSW 1027,9 -
20.03.2019 04:00:00 3,2 0,4 14 8 - - S 1028,1 -
20.03.2019 03:00:00 2,9 0,4 18 10 - - S 1028,5 -
20.03.2019 02:00:00 2,0 0,4 14 8 - - S 1028,9 -
20.03.2019 01:00:00 1,9 0,4 11 6 - - S 1029,0 -
20.03.2019 00:00:00 1,9 0,4 7 4 - - S 1029,5 -
19.03.2019 23:00:00 1,9 0,6 11 6 - - SSW 1029,4 -
19.03.2019 22:00:00 1,5 -0,4 11 6 - - SW 1029,3 40
19.03.2019 21:00:00 1,1 -1,2 11 6 - - SW 1029,1 40
19.03.2019 20:00:00 3,1 -0,7 7 4 - - WSW 1028,7 40
19.03.2019 19:00:00 3,5 -1,1 14 8 - - W 1028,1 40
19.03.2019 18:00:00 6,3 -0,6 18 10 - - WNW 1027,7 55
19.03.2019 17:00:00 7,5 -1,5 22 12 - - W 1026,9 55
19.03.2019 16:00:00 8,0 -1,7 25 14 - - WNW 1026,7 55
19.03.2019 15:00:00 8,2 -0,4 25 14 - - WNW 1026,2 35
19.03.2019 14:00:00 8,5 -1,8 22 12 - - WNW 1025,9 30
19.03.2019 13:00:00 7,1 -1,4 18 10 - - NW 1025,7 30
19.03.2019 12:00:00 7,7 -0,9 22 12 - - NW 1025,3 30
19.03.2019 11:00:00 7,2 -0,3 22 12 - - WNW 1024,8 30

tt = Température de l'air
td = dewpoint
ff = Vitesse du vent
fx = gusts
dd = Direction du vent
ppp = reduced air pressure
vv = visibility

stations d'obs. à proximité